• In Hungary
  • List of Countries
  • For 7 days
  • Water Temperature
  • Satellite Maps
  • Weather Map
  • News
  • Weather Widgets
  • user-avatar
    Login

    Hourly Weather Haywards Heath

    Today, 24 November, Friday

    Time Temperature Precipitation Wind Pressure Humidity
    00:00 +7°C° 0.7 mm 3 mps 750 mmHg 85%
    01:00 +7°C° 1 mm 3 mps 750 mmHg 86%
    02:00 +7°C° 1 mm 3 mps 750 mmHg 88%
    03:00 +7°C° 1 mm 2 mps 750 mmHg 89%
    04:00 +5°C° 0.1 mm 3 mps 751 mmHg 89%
    05:00 +5°C° 0.1 mm 3 mps 751 mmHg 89%
    06:00 +5°C° 0.1 mm 3 mps 752 mmHg 89%
    07:00 +6°C° 0 mm 2 mps 752 mmHg 87%
    08:00 +6°C° 0 mm 2 mps 753 mmHg 86%
    09:00 +6°C° 0 mm 2 mps 753 mmHg 85%
    10:00 +7°C° 0.1 mm 2 mps 753 mmHg 79%
    11:00 +8°C° 0.1 mm 1 mps 754 mmHg 74%
    12:00 +9°C° 0.1 mm 1 mps 754 mmHg 68%
    13:00 +9°C° 0.3 mm 1 mps 754 mmHg 69%
    14:00 +9°C° 0.3 mm 1 mps 754 mmHg 70%
    15:00 +9°C° 0.3 mm 1 mps 754 mmHg 71%
    16:00 +7°C° 0 mm 2 mps 754 mmHg 73%
    17:00 +6°C° 0 mm 2 mps 754 mmHg 75%
    18:00 +5°C° 0 mm 2 mps 754 mmHg 77%
    19:00 +5°C° 0 mm 2 mps 754 mmHg 78%
    20:00 +4°C° 0 mm 2 mps 754 mmHg 79%
    21:00 +3°C° 0 mm 3 mps 754 mmHg 80%
    22:00 +2°C° 0 mm 3 mps 754 mmHg 81%
    23:00 +2°C° 0 mm 3 mps 754 mmHg 81%

    Tomorrow, 25 November, Saturday

    Time Temperature Precipitation Wind Pressure Humidity
    00:00 +2°C° 0 mm 3 mps 754 mmHg 82%
    01:00 +2°C° 0 mm 3 mps 754 mmHg 82%
    02:00 +1°C° 0 mm 3 mps 754 mmHg 81%
    03:00 +1°C° 0 mm 3 mps 754 mmHg 81%
    04:00 +1°C° 0 mm 3 mps 754 mmHg 82%
    05:00 0°C° 0 mm 4 mps 754 mmHg 82%
    06:00 0°C° 0 mm 4 mps 755 mmHg 83%
    07:00 0°C° 0 mm 4 mps 755 mmHg 82%
    08:00 +1°C° 0 mm 5 mps 756 mmHg 80%
    09:00 +1°C° 0 mm 5 mps 757 mmHg 79%
    10:00 +2°C° 0 mm 6 mps 757 mmHg 75%
    11:00 +3°C° 0 mm 6 mps 758 mmHg 70%
    12:00 +3°C° 0 mm 6 mps 758 mmHg 66%
    13:00 +3°C° 0 mm 6 mps 759 mmHg 66%
    14:00 +3°C° 0 mm 6 mps 759 mmHg 67%
    15:00 +3°C° 0 mm 5 mps 760 mmHg 68%
    16:00 +2°C° 0 mm 6 mps 760 mmHg 71%
    17:00 +2°C° 0 mm 6 mps 761 mmHg 73%
    18:00 +1°C° 0 mm 6 mps 761 mmHg 76%
    19:00 +1°C° 0 mm 6 mps 762 mmHg 76%
    20:00 -1°C° 0 mm 6 mps 762 mmHg 77%
    21:00 -1°C° 0 mm 6 mps 763 mmHg 77%
    22:00 -1°C° 0 mm 6 mps 763 mmHg 77%
    23:00 -1°C° 0 mm 6 mps 763 mmHg 77%

    Day after tomorrow, 26 November, Sunday

    Time Temperature Precipitation Wind Pressure Humidity
    00:00 -1°C° 0 mm 6 mps 764 mmHg 77%
    01:00 -1°C° 0 mm 6 mps 764 mmHg 78%
    02:00 -1°C° 0 mm 6 mps 764 mmHg 78%
    03:00 -1°C° 0 mm 6 mps 764 mmHg 79%
    04:00 -1°C° 0 mm 6 mps 764 mmHg 79%
    05:00 -1°C° 0 mm 6 mps 764 mmHg 79%
    06:00 -1°C° 0 mm 6 mps 765 mmHg 79%
    07:00 -1°C° 0 mm 6 mps 765 mmHg 78%
    08:00 -1°C° 0 mm 6 mps 765 mmHg 76%
    09:00 +1°C° 0 mm 6 mps 766 mmHg 75%
    10:00 +2°C° 0 mm 6 mps 766 mmHg 70%
    11:00 +3°C° 0 mm 6 mps 766 mmHg 66%
    12:00 +4°C° 0 mm 6 mps 766 mmHg 62%
    13:00 +4°C° 0 mm 6 mps 766 mmHg 64%
    14:00 +3°C° 0 mm 5 mps 766 mmHg 65%
    15:00 +3°C° 0 mm 5 mps 766 mmHg 67%
    16:00 +3°C° 0 mm 5 mps 766 mmHg 70%
    17:00 +2°C° 0 mm 5 mps 766 mmHg 73%
    18:00 +1°C° 0 mm 5 mps 767 mmHg 77%
    19:00 +1°C° 0 mm 4 mps 767 mmHg 77%
    20:00 +1°C° 0 mm 4 mps 767 mmHg 78%
    21:00 +1°C° 0 mm 4 mps 767 mmHg 79%
    22:00 +1°C° 0 mm 4 mps 766 mmHg 77%
    23:00 +3°C° 0 mm 4 mps 766 mmHg 76%

    27 November, Monday

    Time Temperature Precipitation Wind Pressure Humidity
    00:00 +3°C° 0 mm 4 mps 766 mmHg 75%
    01:00 +3°C° 0 mm 4 mps 766 mmHg 77%
    02:00 +3°C° 0 mm 4 mps 765 mmHg 80%
    03:00 +2°C° 0 mm 5 mps 765 mmHg 82%
    04:00 +3°C° 0 mm 5 mps 764 mmHg 82%
    05:00 +3°C° 0 mm 6 mps 764 mmHg 83%
    06:00 +4°C° 0 mm 6 mps 763 mmHg 83%
    07:00 +5°C° 0.5 mm 7 mps 763 mmHg 84%
    08:00 +5°C° 0.5 mm 8 mps 762 mmHg 85%
    09:00 +6°C° 0.5 mm 9 mps 762 mmHg 87%
    10:00 +6°C° 1.1 mm 9 mps 761 mmHg 87%
    11:00 +7°C° 1.1 mm 9 mps 761 mmHg 87%
    12:00 +7°C° 1.1 mm 10 mps 761 mmHg 87%
    13:00 +7°C° 0.2 mm 8 mps 760 mmHg 84%
    14:00 +6°C° 0.2 mm 7 mps 760 mmHg 81%
    15:00 +7°C° 0.2 mm 6 mps 760 mmHg 78%
    16:00 +5°C° 0 mm 6 mps 760 mmHg 79%
    17:00 +5°C° 0 mm 5 mps 760 mmHg 81%
    18:00 +3°C° 0 mm 5 mps 760 mmHg 82%
    19:00 +3°C° 0 mm 5 mps 760 mmHg 83%
    20:00 +4°C° 0 mm 4 mps 760 mmHg 84%
    21:00 +3°C° 0 mm 4 mps 760 mmHg 85%
    22:00 +3°C° 0 mm 4 mps 760 mmHg 86%
    23:00 +3°C° 0 mm 4 mps 759 mmHg 86%

    28 November, Tuesday

    Time Temperature Precipitation Wind Pressure Humidity
    00:00 +3°C° 0 mm 4 mps 759 mmHg 86%
    01:00 +2°C° 0 mm 5 mps 758 mmHg 85%
    02:00 +3°C° 0 mm 5 mps 757 mmHg 84%
    03:00 +3°C° 0 mm 5 mps 757 mmHg 83%
    04:00 +4°C° 0.1 mm 6 mps 755 mmHg 82%
    05:00 +4°C° 0.1 mm 7 mps 754 mmHg 81%
    06:00 +5°C° 0.1 mm 8 mps 753 mmHg 80%
    07:00 +5°C° 0.6 mm 9 mps 752 mmHg 80%
    08:00 +6°C° 0.6 mm 10 mps 751 mmHg 81%
    09:00 +6°C° 0.6 mm 11 mps 750 mmHg 81%
    10:00 +6°C° 0.2 mm 11 mps 749 mmHg 76%
    11:00 +7°C° 0.2 mm 11 mps 749 mmHg 72%
    12:00 +7°C° 0.2 mm 11 mps 748 mmHg 67%
    13:00 +7°C° 0.1 mm 11 mps 748 mmHg 68%
    14:00 +6°C° 0.1 mm 11 mps 748 mmHg 70%
    15:00 +6°C° 0.1 mm 10 mps 747 mmHg 71%
    16:00 +5°C° 0.1 mm 9 mps 748 mmHg 75%
    17:00 +5°C° 0.1 mm 9 mps 748 mmHg 78%
    18:00 +4°C° 0.1 mm 8 mps 748 mmHg 81%
    19:00 +4°C° 0.1 mm 8 mps 748 mmHg 83%
    20:00 +4°C° 0.1 mm 7 mps 748 mmHg 85%
    21:00 +3°C° 0.1 mm 7 mps 748 mmHg 87%
    22:00 +3°C° 0 mm 6 mps 748 mmHg 88%
    23:00 +3°C° 0 mm 6 mps 748 mmHg 88%

    29 November, Wednesday

    Time Temperature Precipitation Wind Pressure Humidity
    00:00 +2°C° 0 mm 6 mps 748 mmHg 89%
    01:00 +2°C° 0 mm 6 mps 748 mmHg 89%
    02:00 +2°C° 0 mm 6 mps 748 mmHg 89%
    03:00 +2°C° 0 mm 6 mps 748 mmHg 89%
    04:00 +2°C° 0.3 mm 6 mps 748 mmHg 88%
    05:00 +2°C° 0.3 mm 6 mps 748 mmHg 87%
    06:00 +2°C° 0.3 mm 7 mps 748 mmHg 87%
    07:00 +2°C° 1 mm 7 mps 749 mmHg 84%
    08:00 +1°C° 1 mm 8 mps 749 mmHg 82%
    09:00 +1°C° 1 mm 8 mps 750 mmHg 80%
    10:00 +2°C° 0.3 mm 8 mps 750 mmHg 78%
    11:00 +2°C° 0.3 mm 8 mps 750 mmHg 76%
    12:00 +2°C° 0.3 mm 8 mps 751 mmHg 73%
    13:00 +3°C° 0 mm 7 mps 751 mmHg 75%
    14:00 +3°C° 0 mm 7 mps 752 mmHg 76%
    15:00 +3°C° 0 mm 6 mps 752 mmHg 78%
    16:00 +3°C° 0 mm 6 mps 753 mmHg 79%
    17:00 +2°C° 0 mm 6 mps 753 mmHg 80%
    18:00 +2°C° 0 mm 6 mps 754 mmHg 82%
    19:00 +2°C° 0 mm 6 mps 755 mmHg 82%
    20:00 +1°C° 0 mm 6 mps 755 mmHg 82%
    21:00 +1°C° 0 mm 6 mps 756 mmHg 82%
    22:00 +1°C° 0 mm 6 mps 756 mmHg 83%
    23:00 -1°C° 0 mm 6 mps 756 mmHg 83%
    Show more